Domov               UVHVVR             MKGP            O straneh              
ZDRAVSTVENO VARSTVO RASTLIN
  MREŽA AGROMET. POSTAJ
 ► PROGNOSTIČNA OBVESTILA
AGROMETEOROLOŠKI PODATKI -
ARSO
OBVLADOVANJE TVEGANJ ZARADI
NEUGODNIH VREMENSKIH RAZMER
  ► NARAVNE NESREČE
  ► SUŠA/MOČA
  ► NAMAKANJE
  ► ŽLED (gozdarstvo)
KARTOGRAFSKI PRIKAZI
SPLETNE POVEZAVE
PROJEKTI IN PUBLIKACIJE

AGROMETEOROLOŠKA MREŽA: VREMENSKE POSTAJE IN FENOLOŠKA OPAZOVANJA

Pregled podatkov za lokacijo Meranovo, meteorološka postaja 61680

Pregled senzorjev na lokaciji

ID Ime Zadnja
vrednost
Datum
zadnje
spremembe
Tip
senzorja
4202 Omočenost lista (U) 0 U 23.3.2019 11:30 A730WET
4203 Padavine (mm) 0 mm 23.3.2019 11:30 Generic 0.2 mm
4201 Relativna vlaga 2 m (% RH) 36,91 % RH 23.3.2019 11:29 Generic 0 - 100 %
4200 Temperatura 2 m (°C) 13,8 °C 23.3.2019 11:30 Generic -40 - +60 °C

Pregled podatkov zadnjih 24 ur

Zap.
št.
Datum in čas Meranovo
Omočenost
lista
Padavine Relativna
vlaga
2
m
Temperatura
2
m
1 23.3.2019 11:00
2 23.3.2019 10:30 0 0 36,9 13,8
3 23.3.2019 10:00 0 0 41,3 12,1
4 23.3.2019 09:30 0 0 44,5 10,7
5 23.3.2019 09:00 0 0 46 9,8
6 23.3.2019 08:30 0 0 48,8 8,5
7 23.3.2019 08:00 0 0 49,5 7,8
8 23.3.2019 07:30 0 0 51,3 7,1
9 23.3.2019 07:00 0 0 51,9 6,6
10 23.3.2019 06:30 0 0 53,3 5,8
11 23.3.2019 06:00 0 0 53,9 5,5
12 23.3.2019 05:30 0 0 51,9 5,8
13 23.3.2019 05:00 0 0 49,9 6,3
14 23.3.2019 04:30 0 0 49,1 6,6
15 23.3.2019 04:00 0 0 49,3 6,5
16 23.3.2019 03:30 0 0 47,7 6,8
17 23.3.2019 03:00 0 0 46,3 7,1
18 23.3.2019 02:30 0 0 46,8 7
19 23.3.2019 02:00 0 0 45,7 7,2
20 23.3.2019 01:30 0 0 45,7 7,3
21 23.3.2019 01:00 0 0 43,3 8
22 23.3.2019 00:30 0 0 44,4 7,9
23 23.3.2019 00:00 0 0 46,7 7,5
24 22.3.2019 23:30 0 0 45,9 7,8
25 22.3.2019 23:00 0 0 43,1 8,5
26 22.3.2019 22:30 0 0 38,9 9,3
27 22.3.2019 22:00 0 0 41,7 8,8
28 22.3.2019 21:30 0 0 40,2 9,2
29 22.3.2019 21:00 0 0 38,3 9,5
30 22.3.2019 20:30 0 0 37,5 9,7
31 22.3.2019 20:00 0 0 37,8 9,9
32 22.3.2019 19:30 0 0 35,7 10,3
33 22.3.2019 19:00 0 0 29,5 11,4
34 22.3.2019 18:30 0 0 26,3 11,9
35 22.3.2019 18:00 0 0 26,2 12,2
36 22.3.2019 17:30 0 0 25,4 13,1
37 22.3.2019 17:00 0 0 20,3 14
38 22.3.2019 16:30 0 0 18,3 14,8
39 22.3.2019 16:00 0 0 18,1 15
40 22.3.2019 15:30 0 0 20,8 14,9
41 22.3.2019 15:00 0 0 20,8 14,9
42 22.3.2019 14:30 0 0 23,7 14,6
43 22.3.2019 14:00 0 0 24,6 14,1
44 22.3.2019 13:30 0 0 25,2 14
45 22.3.2019 13:00 0 0 25,8 13,6
46 22.3.2019 12:30 0 0 31,6 12,6
47 22.3.2019 12:00 0 0 34,7 12,3
48 22.3.2019 11:30 0 0 36 12,6
© 2011 Ministrstvo za kmetijstvo, gozdarstvo in prehrano. Vse pravice pridržane.